FLOCK 4P-11

Last updated on Sat Dec 28 2019 00:02:03 GMT+0000 (Coordinated Universal Time)

1 44809U 19081F 19360.71202497 .00000527 00000-0 28227-4 0 9994 2 44809 97.5201 57.6364 0014738 140.3940 219.8374 15.19255444 4486
UTC large
Height (km)
Speed (km/s)
/
Latitude / Longitude
Inclination (degrees)
Orbital Period (minutes)
Azimuth
Elevation
Range (km)
Doppler Factor

Next 0 passes for location: London (51.5072 / 0.1276)

Sorry there are no passes over London.